Time,TemperatureF,DewpointF,PressureIn,WindDirection,WindDirectionDegrees,WindSpeedMPH,WindSpeedGustMPH,Humidity,HourlyPrecipIn,Conditions,Clouds,dailyrainin,SolarRadiationWatts/m^2,SoftwareType,DateUTC
2013-03-22 00:11:00,29.2,24.0,30.17,SE,130,1.0,-999.0,81,-99.99,,,0.00,0,weatherlink.com 1.10,2013-03-21 23:11:00,
2013-03-22 00:26:00,29.1,24.0,30.17,SE,142,1.0,-999.0,81,-99.99,,,0.00,0,weatherlink.com 1.10,2013-03-21 23:26:00,
2013-03-22 00:41:00,28.9,24.0,30.17,ESE,116,0.0,-999.0,81,-99.99,,,0.00,0,weatherlink.com 1.10,2013-03-21 23:41:00,
2013-03-22 00:56:00,28.8,24.0,30.17,ESE,115,1.0,-999.0,81,-99.99,,,0.00,0,weatherlink.com 1.10,2013-03-21 23:56:00,
2013-03-22 01:26:00,28.5,24.0,30.17,SE,135,0.0,-999.0,82,-99.99,,,0.00,0,weatherlink.com 1.10,2013-03-22 00:26:00,
2013-03-22 01:41:00,28.8,24.0,30.18,SE,136,0.0,-999.0,82,-99.99,,,0.00,0,weatherlink.com 1.10,2013-03-22 00:41:00,
2013-03-22 01:56:00,29.0,24.0,30.17,ESE,112,0.0,-999.0,80,-99.99,,,0.00,0,weatherlink.com 1.10,2013-03-22 00:56:00,
2013-03-22 02:26:00,29.3,24.0,30.17,NNE,32,0.0,-999.0,80,-99.99,,,0.00,0,weatherlink.com 1.10,2013-03-22 01:26:00,
2013-03-22 02:41:00,29.4,24.0,30.17,ESE,114,2.0,-999.0,79,-99.99,,,0.00,0,weatherlink.com 1.10,2013-03-22 01:41:00,
2013-03-22 02:56:00,29.5,24.0,30.17,SE,135,0.0,-999.0,79,-99.99,,,0.00,0,weatherlink.com 1.10,2013-03-22 01:56:00,
2013-03-22 03:11:00,29.4,24.0,30.17,SE,134,2.0,-999.0,79,-99.99,,,0.00,0,weatherlink.com 1.10,2013-03-22 02:11:00,
2013-03-22 03:26:00,29.3,24.0,30.16,East,96,0.0,-999.0,79,-99.99,,,0.00,0,weatherlink.com 1.10,2013-03-22 02:26:00,
2013-03-22 03:56:00,28.9,23.0,30.16,SSE,148,1.0,-999.0,80,-99.99,,,0.00,0,weatherlink.com 1.10,2013-03-22 02:56:00,
2013-03-22 04:11:00,29.1,24.0,30.17,ESE,119,4.0,-999.0,80,-99.99,,,0.00,0,weatherlink.com 1.10,2013-03-22 03:11:00,
2013-03-22 04:27:00,29.3,24.0,30.16,ESE,116,0.0,-999.0,80,-99.99,,,0.00,0,weatherlink.com 1.10,2013-03-22 03:27:00,
2013-03-22 04:41:00,29.2,24.0,30.17,ESE,123,2.0,-999.0,81,-99.99,,,0.00,0,weatherlink.com 1.10,2013-03-22 03:41:00,
2013-03-22 05:26:00,28.7,25.0,30.16,East,87,0.0,-999.0,86,-99.99,,,0.00,0,weatherlink.com 1.10,2013-03-22 04:26:00,
2013-03-22 05:41:00,28.6,25.0,30.17,North,356,0.0,-999.0,86,-99.99,,,0.00,0,weatherlink.com 1.10,2013-03-22 04:41:00,
2013-03-22 05:56:00,28.7,25.0,30.17,North,357,1.0,-999.0,86,-99.99,,,0.00,0,weatherlink.com 1.10,2013-03-22 04:56:00,
2013-03-22 06:11:00,28.4,25.0,30.17,NE,56,0.0,-999.0,85,-99.99,,,0.00,0,weatherlink.com 1.10,2013-03-22 05:11:00,
2013-03-22 06:26:00,28.1,24.0,30.18,North,2,0.0,-999.0,84,-99.99,,,0.00,7,weatherlink.com 1.10,2013-03-22 05:26:00,
2013-03-22 06:55:00,28.1,24.0,30.19,ENE,68,1.0,-999.0,83,-99.99,,,0.00,46,weatherlink.com 1.10,2013-03-22 05:55:00,
2013-03-22 07:11:00,28.4,23.0,30.19,East,101,1.0,-999.0,81,-99.99,,,0.00,58,weatherlink.com 1.10,2013-03-22 06:11:00,
2013-03-22 07:26:00,28.5,23.0,30.19,NNW,329,4.0,-999.0,81,-99.99,,,0.00,70,weatherlink.com 1.10,2013-03-22 06:26:00,
2013-03-22 07:41:00,28.5,23.0,30.19,East,94,0.0,-999.0,81,-99.99,,,0.00,51,weatherlink.com 1.10,2013-03-22 06:41:00,
2013-03-22 07:55:00,28.7,23.0,30.20,ESE,109,1.0,-999.0,80,-99.99,,,0.00,56,weatherlink.com 1.10,2013-03-22 06:55:00,
2013-03-22 08:26:00,28.8,22.0,30.20,ESE,123,1.0,-999.0,76,-99.99,,,0.00,81,weatherlink.com 1.10,2013-03-22 07:26:00,
2013-03-22 08:55:00,29.8,22.0,30.20,East,95,4.0,-999.0,73,-99.99,,,0.00,162,weatherlink.com 1.10,2013-03-22 07:55:00,
2013-03-22 09:12:00,29.6,22.0,30.20,ESE,110,2.0,-999.0,73,-99.99,,,0.00,156,weatherlink.com 1.10,2013-03-22 08:12:00,
2013-03-22 09:27:00,29.5,22.0,30.21,ENE,74,2.0,-999.0,73,-99.99,,,0.00,165,weatherlink.com 1.10,2013-03-22 08:27:00,
2013-03-22 09:41:00,29.9,22.0,30.21,ESE,107,1.0,-999.0,73,-99.99,,,0.00,188,weatherlink.com 1.10,2013-03-22 08:41:00,
2013-03-22 09:56:00,30.2,22.0,30.21,ENE,77,1.0,-999.0,72,-99.99,,,0.00,200,weatherlink.com 1.10,2013-03-22 08:56:00,
2013-03-22 10:11:00,30.3,22.0,30.21,North,360,2.0,-999.0,72,-99.99,,,0.00,218,weatherlink.com 1.10,2013-03-22 09:11:00,
2013-03-22 10:42:00,33.5,23.0,30.20,East,90,1.0,-999.0,66,-99.99,,,0.00,598,weatherlink.com 1.10,2013-03-22 09:42:00,
2013-03-22 11:25:00,31.9,22.0,30.20,North,350,1.0,-999.0,67,-99.99,,,0.00,148,weatherlink.com 1.10,2013-03-22 10:25:00,
2013-03-22 11:56:00,31.6,22.0,30.20,ESE,108,0.0,-999.0,68,-99.99,,,0.00,162,weatherlink.com 1.10,2013-03-22 10:56:00,
2013-03-22 12:26:00,31.7,23.0,30.20,NNE,25,0.0,-999.0,71,-99.99,,,0.00,272,weatherlink.com 1.10,2013-03-22 11:26:00,
2013-03-22 12:41:00,32.0,24.0,30.20,East,97,1.0,-999.0,71,-99.99,,,0.00,223,weatherlink.com 1.10,2013-03-22 11:41:00,
2013-03-22 13:41:00,31.3,23.0,30.19,NNE,13,0.0,-999.0,71,-99.99,,,0.00,116,weatherlink.com 1.10,2013-03-22 12:41:00,
2013-03-22 13:55:00,31.9,23.0,30.19,East,99,0.0,-999.0,70,-99.99,,,0.00,221,weatherlink.com 1.10,2013-03-22 12:55:00,
2013-03-22 14:25:00,32.4,23.0,30.18,East,85,2.0,-999.0,69,-99.99,,,0.00,192,weatherlink.com 1.10,2013-03-22 13:25:00,
2013-03-22 14:57:00,31.3,24.0,30.18,NE,42,1.0,-999.0,75,-99.99,,,0.00,49,weatherlink.com 1.10,2013-03-22 13:57:00,
2013-03-22 15:11:00,31.0,25.0,30.18,NNE,24,2.0,-999.0,78,-99.99,,,0.00,77,weatherlink.com 1.10,2013-03-22 14:11:00,
2013-03-22 15:41:00,31.3,26.0,30.19,East,92,0.0,-999.0,79,-99.99,,,0.00,104,weatherlink.com 1.10,2013-03-22 14:41:00,
2013-03-22 15:56:00,31.5,25.0,30.19,ENE,73,1.0,-999.0,78,-99.99,,,0.00,77,weatherlink.com 1.10,2013-03-22 14:56:00,
2013-03-22 16:41:00,31.5,25.0,30.19,NNE,14,0.0,-999.0,76,-99.99,,,0.00,23,weatherlink.com 1.10,2013-03-22 15:41:00,
2013-03-22 16:56:00,31.5,24.0,30.19,East,98,0.0,-999.0,75,-99.99,,,0.00,21,weatherlink.com 1.10,2013-03-22 15:56:00,
2013-03-22 17:25:00,30.7,25.0,30.19,East,81,0.0,-999.0,78,-99.99,,,0.00,9,weatherlink.com 1.10,2013-03-22 16:25:00,
2013-03-22 17:41:00,30.4,25.0,30.19,ENE,71,0.0,-999.0,80,-99.99,,,0.00,9,weatherlink.com 1.10,2013-03-22 16:41:00,
2013-03-22 17:56:00,30.2,25.0,30.19,SE,137,0.0,-999.0,80,-99.99,,,0.00,0,weatherlink.com 1.10,2013-03-22 16:56:00,
2013-03-22 18:11:00,30.0,25.0,30.20,ESE,104,0.0,-999.0,81,-99.99,,,0.00,0,weatherlink.com 1.10,2013-03-22 17:11:00,
2013-03-22 18:26:00,29.9,25.0,30.20,ESE,104,0.0,-999.0,81,-99.99,,,0.00,0,weatherlink.com 1.10,2013-03-22 17:26:00,
2013-03-22 18:41:00,29.7,24.0,30.21,ENE,75,5.0,-999.0,78,-99.99,,,0.00,0,weatherlink.com 1.10,2013-03-22 17:41:00,
2013-03-22 19:41:00,29.5,22.0,30.22,ENE,67,0.0,-999.0,72,-99.99,,,0.00,0,weatherlink.com 1.10,2013-03-22 18:41:00,
2013-03-22 19:56:00,29.3,21.0,30.22,East,85,1.0,-999.0,72,-99.99,,,0.00,0,weatherlink.com 1.10,2013-03-22 18:56:00,
2013-03-22 20:41:00,29.0,22.0,30.23,ENE,76,0.0,-999.0,75,-99.99,,,0.00,0,weatherlink.com 1.10,2013-03-22 19:41:00,
2013-03-22 20:56:00,28.9,22.0,30.22,ENE,72,0.0,-999.0,75,-99.99,,,0.00,0,weatherlink.com 1.10,2013-03-22 19:56:00,
2013-03-22 21:11:00,28.8,22.0,30.22,NNE,19,0.0,-999.0,77,-99.99,,,0.00,0,weatherlink.com 1.10,2013-03-22 20:11:00,
2013-03-22 21:26:00,28.8,23.0,30.22,NE,48,0.0,-999.0,78,-99.99,,,0.00,0,weatherlink.com 1.10,2013-03-22 20:26:00,
2013-03-22 21:55:00,28.7,23.0,30.22,NE,48,0.0,-999.0,79,-99.99,,,0.00,0,weatherlink.com 1.10,2013-03-22 20:55:00,
2013-03-22 22:11:00,28.7,23.0,30.22,NE,48,0.0,-999.0,80,-99.99,,,0.00,0,weatherlink.com 1.10,2013-03-22 21:11:00,
2013-03-22 22:41:00,29.0,24.0,30.22,NNE,15,0.0,-999.0,80,-99.99,,,0.00,0,weatherlink.com 1.10,2013-03-22 21:41:00,
2013-03-22 22:56:00,29.1,23.0,30.21,North,352,2.0,-999.0,77,-99.99,,,0.00,0,weatherlink.com 1.10,2013-03-22 21:56:00,
2013-03-22 23:11:00,29.1,22.0,30.21,North,8,1.0,-999.0,76,-99.99,,,0.00,0,weatherlink.com 1.10,2013-03-22 22:11:00,
2013-03-22 23:26:00,29.0,22.0,30.22,North,2,0.0,-999.0,76,-99.99,,,0.00,0,weatherlink.com 1.10,2013-03-22 22:26:00,
2013-03-22 23:56:00,28.8,22.0,30.22,ENE,69,1.0,-999.0,75,-99.99,,,0.00,0,weatherlink.com 1.10,2013-03-22 22:56:00,